Torna al catalogo

STARLINK-33793

AttivoComunicazioniSSO
NORAD 64165·PAYLOAD·🇺🇸 United States

Lanciato May 27, 2025 da Vandenberg Space Force Base

Loading…

Prossimi Passaggi (prossime 24 ore)

TLE

AggiornatoSource: CelesTrak SupGP

Epoca: Sep 15, 2026, 03:36 UTC

1 64165C 25112V   26258.15048611 -.00025521  00000+0 -79203-3 0  2580
2 64165  97.2834 305.3329 0000926  97.8027 149.9640 15.33460440    16

Traccia STARLINK-33793 in tempo reale con AllMySat

Download on the App Store